Location: Ottawa
(45.4170°N, 75.7000°W)
Time: 02:26:09
(UTC-04:00)

Iridium 91 - Visible Passes

Search period start: 22 September 2017 00:00
Search period end: 02 October 2017 00:00
Orbit: 775 x 779 km, 86.4° (Epoch: 21 September)

Date Brightness Start Highest point End Pass type
(mag) Time Alt. Az. Time Alt. Az. Time Alt. Az.
22 Sep 5.8 04:48:22 10° N 04:53:34 67° E 04:58:45 10° SSE visible
23 Sep 6.9 04:15:04 10° NNE 04:19:55 38° E 04:24:45 10° SSE visible
23 Sep 6.4 05:56:05 10° NNW 06:00:28 28° W 06:04:51 10° SW visible
24 Sep 7.8 03:42:06 10° NNE 03:46:08 22° ENE 03:50:08 10° SE visible
24 Sep 5.7 05:22:07 10° NNW 05:27:08 49° W 05:32:08 10° SSW visible
25 Sep 8.4 03:09:55 10° NE 03:12:12 13° ENE 03:14:29 10° E visible
25 Sep 5.4 04:48:26 10° N 04:53:41 87° W 04:58:54 10° S visible
26 Sep 6.2 04:15:00 10° N 04:20:06 53° E 04:24:46 12° SSE visible
26 Sep 6.8 05:56:39 10° NNW 06:00:24 20° W 06:04:08 10° SW visible
27 Sep 7.2 03:41:48 10° NNE 03:46:24 30° ENE 03:49:35 17° SE visible
27 Sep 6.1 05:22:26 10° NNW 05:27:08 35° W 05:29:58 20° SW visible
28 Sep 8.0 03:09:03 10° NNE 03:12:34 18° ENE 03:14:50 14° ESE visible
28 Sep 5.5 04:48:36 10° N 04:53:45 62° W 04:55:13 44° SSW visible
29 Sep 5.6 04:15:01 10° N 04:20:16 76° E 04:20:43 70° SE visible
29 Sep 7.1 05:57:32 10° NW 06:00:16 14° WNW 06:01:07 14° W visible
30 Sep 6.6 03:41:39 10° N 03:46:23 42° ENE 03:46:23 42° ENE visible
30 Sep 6.6 05:22:53 10° NNW 05:26:47 25° WNW 05:26:47 25° WNW visible
01 Oct 7.6 03:08:36 10° NNE 03:12:09 24° ENE 03:12:09 24° ENE visible
01 Oct 6.2 04:48:51 10° NNW 04:52:33 37° NW 04:52:33 37° NW visible
